TimeCST,TemperatureF,Dew PointF,Humidity,Sea Level PressureIn,VisibilityMPH,Wind Direction,Wind SpeedMPH,Gust SpeedMPH,PrecipitationIn,Events,Conditions,WindDirDegrees,DateUTC
12:03 AM,48.2,48.2,100,30.20,0.8,Calm,Calm,-,N/A,,Clear,0,2012-11-23 06:03:00
12:08 AM,48.2,46.4,93,30.20,2.5,Calm,Calm,-,N/A,,Clear,0,2012-11-23 06:08:00
12:15 AM,48.2,48.2,100,30.20,5.0,Calm,Calm,-,N/A,,Clear,0,2012-11-23 06:15:00
12:41 AM,46.4,44.6,93,30.20,1.8,Calm,Calm,-,N/A,,Clear,0,2012-11-23 06:41:00
12:53 AM,46.4,46.4,100,30.20,3.0,Calm,Calm,-,N/A,,Clear,0,2012-11-23 06:53:00
12:56 AM,46.9,46.9,100,30.21,5.0,Calm,Calm,-,N/A,,Clear,0,2012-11-23 06:56:00
1:29 AM,46.4,46.4,100,30.20,1.8,Calm,Calm,-,0.00,,Clear,0,2012-11-23 07:29:00
1:39 AM,46.4,44.6,93,30.20,0.8,Calm,Calm,-,0.00,,Clear,0,2012-11-23 07:39:00
1:47 AM,46.4,46.4,100,30.20,2.0,Calm,Calm,-,0.00,,Clear,0,2012-11-23 07:47:00
1:56 AM,46.0,46.0,100,30.21,5.0,Calm,Calm,-,0.00,,Clear,0,2012-11-23 07:56:00
2:07 AM,46.4,46.4,100,30.20,1.8,Calm,Calm,-,N/A,,Clear,0,2012-11-23 08:07:00
2:22 AM,46.4,46.4,100,30.20,2.5,WNW,3.5,-,N/A,,Clear,300,2012-11-23 08:22:00
2:34 AM,46.4,44.6,93,30.20,3.0,Calm,Calm,-,N/A,,Clear,0,2012-11-23 08:34:00
2:42 AM,44.6,44.6,100,30.20,2.0,Calm,Calm,-,N/A,,Clear,0,2012-11-23 08:42:00
2:56 AM,46.0,45.0,96,30.21,2.5,NNW,3.5,-,N/A,,Clear,330,2012-11-23 08:56:00
3:04 AM,46.4,44.6,93,30.20,3.0,NW,3.5,-,N/A,,Clear,320,2012-11-23 09:04:00
3:36 AM,44.6,44.6,100,30.21,1.8,Calm,Calm,-,N/A,,Clear,0,2012-11-23 09:36:00
3:45 AM,44.6,44.6,100,30.20,3.0,Calm,Calm,-,0.00,Rain,Light Rain,0,2012-11-23 09:45:00
3:50 AM,46.4,44.6,93,30.21,2.5,NNW,3.5,-,0.00,Rain,Light Rain,330,2012-11-23 09:50:00
3:56 AM,46.9,46.0,97,30.21,1.0,NNW,3.5,-,0.00,Rain,Light Rain,330,2012-11-23 09:56:00
4:04 AM,46.4,44.6,93,30.20,0.8,Calm,Calm,-,0.00,,Mist,0,2012-11-23 10:04:00
4:10 AM,46.4,46.4,100,30.21,1.2,Calm,Calm,-,0.00,,Partly Cloudy,0,2012-11-23 10:10:00
4:24 AM,44.6,44.6,100,30.21,2.5,NW,3.5,-,0.00,,Clear,320,2012-11-23 10:24:00
4:56 AM,44.1,44.1,100,30.22,2.5,Calm,Calm,-,0.00,,Clear,0,2012-11-23 10:56:00
5:09 AM,44.6,44.6,100,30.22,3.0,NW,3.5,-,N/A,,Clear,310,2012-11-23 11:09:00
5:29 AM,44.6,44.6,100,30.22,2.5,NW,3.5,-,N/A,,Clear,320,2012-11-23 11:29:00
5:41 AM,44.6,44.6,100,30.22,1.8,NW,3.5,-,N/A,,Clear,320,2012-11-23 11:41:00
5:53 AM,44.6,44.6,100,30.23,7.0,NW,3.5,-,N/A,Fog,Shallow Fog,320,2012-11-23 11:53:00
5:56 AM,45.0,44.1,97,30.24,7.0,Calm,Calm,-,N/A,Fog,Shallow Fog,0,2012-11-23 11:56:00
6:56 AM,46.0,46.0,100,30.25,7.0,Calm,Calm,-,N/A,Fog,Shallow Fog,0,2012-11-23 12:56:00
7:56 AM,57.0,55.0,93,30.26,7.0,NW,3.5,-,N/A,,Scattered Clouds,310,2012-11-23 13:56:00
8:56 AM,64.0,54.0,70,30.27,10.0,NW,5.8,-,N/A,,Partly Cloudy,320,2012-11-23 14:56:00
9:56 AM,69.1,52.0,54,30.26,10.0,WNW,6.9,-,N/A,,Partly Cloudy,290,2012-11-23 15:56:00
10:56 AM,72.0,51.1,48,30.24,10.0,NNW,9.2,-,N/A,,Scattered Clouds,330,2012-11-23 16:56:00
11:56 AM,73.0,48.9,42,30.20,10.0,WNW,10.4,-,N/A,,Scattered Clouds,290,2012-11-23 17:56:00
12:56 PM,72.0,54.0,53,30.17,10.0,SSW,10.4,-,N/A,,Partly Cloudy,210,2012-11-23 18:56:00
1:56 PM,73.9,46.0,37,30.14,10.0,Variable,4.6,-,N/A,,Partly Cloudy,0,2012-11-23 19:56:00
2:56 PM,73.0,48.0,41,30.13,10.0,NW,5.8,-,N/A,,Scattered Clouds,320,2012-11-23 20:56:00
3:56 PM,66.9,55.9,68,30.13,10.0,SW,8.1,-,N/A,,Scattered Clouds,230,2012-11-23 21:56:00
4:56 PM,63.0,55.0,75,30.13,10.0,WSW,5.8,-,N/A,,Mostly Cloudy,240,2012-11-23 22:56:00
5:56 PM,62.1,54.0,75,30.14,10.0,West,4.6,-,N/A,,Scattered Clouds,260,2012-11-23 23:56:00
6:56 PM,62.1,55.0,78,30.15,10.0,West,5.8,-,N/A,,Partly Cloudy,270,2012-11-24 00:56:00
7:56 PM,61.0,55.9,83,30.15,10.0,West,5.8,-,N/A,,Partly Cloudy,270,2012-11-24 01:56:00
8:56 PM,61.0,55.9,83,30.16,10.0,WNW,4.6,-,N/A,,Partly Cloudy,290,2012-11-24 02:56:00
9:56 PM,61.0,55.0,81,30.17,10.0,NNW,9.2,-,N/A,,Clear,330,2012-11-24 03:56:00
10:56 PM,60.1,55.0,83,30.17,10.0,NW,10.4,18.4,N/A,,Clear,320,2012-11-24 04:56:00
11:56 PM,57.9,54.0,87,30.16,10.0,NNW,12.7,18.4,N/A,,Clear,330,2012-11-24 05:56:00